When you browse on this site, cookies collect data to enhance your experience and personalize the content and advertising you see.
Visit our Privacy Policy to learn more. By continuing to use the site, you agree to this use of cookies and data.
  • In Belgium
  • List of Countries
  • For 7 days
  • Water Temperature
  • Satellite Maps
  • Weather Map
  • Weather Widgets
  • user-avatar
    Login

    Hourly Weather Grachev Verh

    Today, 23 April, Tuesday

    Time Temperature Precipitation Wind Pressure Humidity
    00:00 +13°C° 0 mm 2 mps 753 mmHg 47%
    01:00 +13°C° 0 mm 2 mps 753 mmHg 49%
    02:00 +12°C° 0 mm 2 mps 753 mmHg 51%
    03:00 +12°C° 0 mm 2 mps 753 mmHg 54%
    04:00 +12°C° 0 mm 2 mps 753 mmHg 54%
    05:00 +10°C° 0 mm 2 mps 753 mmHg 55%
    06:00 +11°C° 0 mm 1 mps 753 mmHg 56%
    07:00 +13°C° 0 mm 2 mps 754 mmHg 52%
    08:00 +14°C° 0 mm 2 mps 754 mmHg 49%
    09:00 +15°C° 0 mm 2 mps 754 mmHg 46%
    10:00 +16°C° 0 mm 2 mps 754 mmHg 41%
    11:00 +17°C° 0 mm 3 mps 754 mmHg 36%
    12:00 +18°C° 0 mm 3 mps 754 mmHg 31%
    13:00 +19°C° 0 mm 3 mps 754 mmHg 32%
    14:00 +19°C° 0 mm 3 mps 754 mmHg 32%
    15:00 +19°C° 0 mm 3 mps 754 mmHg 32%
    16:00 +19°C° 0 mm 3 mps 753 mmHg 34%
    17:00 +18°C° 0 mm 3 mps 753 mmHg 36%
    18:00 +18°C° 0 mm 3 mps 753 mmHg 38%
    19:00 +17°C° 0 mm 3 mps 753 mmHg 42%
    20:00 +14°C° 0 mm 3 mps 753 mmHg 47%
    21:00 +13°C° 0 mm 3 mps 753 mmHg 51%
    22:00 +12°C° 0 mm 3 mps 753 mmHg 53%
    23:00 +12°C° 0 mm 3 mps 753 mmHg 55%

    Tomorrow, 24 April, Wednesday

    Time Temperature Precipitation Wind Pressure Humidity
    00:00 +11°C° 0 mm 3 mps 753 mmHg 57%
    01:00 +10°C° 0 mm 3 mps 754 mmHg 59%
    02:00 +10°C° 0 mm 3 mps 754 mmHg 61%
    03:00 +10°C° 0 mm 3 mps 754 mmHg 62%
    04:00 +9°C° 0 mm 3 mps 754 mmHg 64%
    05:00 +9°C° 0 mm 3 mps 754 mmHg 66%
    06:00 +9°C° 0 mm 3 mps 754 mmHg 68%
    07:00 +11°C° 0 mm 3 mps 754 mmHg 63%
    08:00 +13°C° 0 mm 3 mps 754 mmHg 58%
    09:00 +16°C° 0 mm 3 mps 754 mmHg 53%
    10:00 +17°C° 0 mm 3 mps 754 mmHg 48%
    11:00 +18°C° 0 mm 3 mps 754 mmHg 42%
    12:00 +20°C° 0 mm 4 mps 754 mmHg 37%
    13:00 +20°C° 0 mm 4 mps 754 mmHg 36%
    14:00 +21°C° 0 mm 4 mps 753 mmHg 35%
    15:00 +21°C° 0 mm 3 mps 753 mmHg 35%
    16:00 +21°C° 0 mm 3 mps 753 mmHg 37%
    17:00 +21°C° 0 mm 3 mps 753 mmHg 39%
    18:00 +21°C° 0 mm 2 mps 753 mmHg 41%
    19:00 +19°C° 0 mm 2 mps 753 mmHg 45%
    20:00 +18°C° 0 mm 2 mps 753 mmHg 48%
    21:00 +16°C° 0 mm 2 mps 753 mmHg 52%
    22:00 +15°C° 0 mm 2 mps 753 mmHg 54%
    23:00 +15°C° 0 mm 2 mps 753 mmHg 56%

    Day after tomorrow, 25 April, Thursday

    Time Temperature Precipitation Wind Pressure Humidity
    00:00 +14°C° 0 mm 2 mps 753 mmHg 58%
    01:00 +14°C° 0 mm 2 mps 753 mmHg 60%
    02:00 +13°C° 0 mm 2 mps 753 mmHg 61%
    03:00 +13°C° 0 mm 2 mps 753 mmHg 62%
    04:00 +12°C° 0 mm 2 mps 753 mmHg 64%
    05:00 +12°C° 0 mm 2 mps 753 mmHg 65%
    06:00 +12°C° 0 mm 2 mps 753 mmHg 67%
    07:00 +14°C° 0 mm 2 mps 753 mmHg 62%
    08:00 +16°C° 0 mm 2 mps 753 mmHg 56%
    09:00 +17°C° 0 mm 2 mps 753 mmHg 51%
    10:00 +19°C° 0 mm 2 mps 753 mmHg 46%
    11:00 +20°C° 0 mm 2 mps 753 mmHg 42%
    12:00 +22°C° 0 mm 3 mps 753 mmHg 38%
    13:00 +23°C° 0 mm 2 mps 753 mmHg 36%
    14:00 +23°C° 0 mm 2 mps 753 mmHg 35%
    15:00 +24°C° 0 mm 2 mps 752 mmHg 33%
    16:00 +24°C° 0 mm 2 mps 752 mmHg 35%
    17:00 +24°C° 0 mm 2 mps 752 mmHg 37%
    18:00 +23°C° 0 mm 1 mps 752 mmHg 39%
    19:00 +22°C° 0 mm 1 mps 752 mmHg 42%
    20:00 +20°C° 0 mm 1 mps 752 mmHg 45%
    21:00 +18°C° 0 mm 1 mps 752 mmHg 49%
    22:00 +18°C° 0 mm 1 mps 752 mmHg 51%
    23:00 +16°C° 0 mm 1 mps 752 mmHg 53%

    26 April, Friday

    Time Temperature Precipitation Wind Pressure Humidity
    00:00 +16°C° 0 mm 1 mps 752 mmHg 55%
    01:00 +15°C° 0 mm 1 mps 752 mmHg 56%
    02:00 +15°C° 0 mm 1 mps 751 mmHg 58%
    03:00 +15°C° 0 mm 1 mps 751 mmHg 59%
    04:00 +15°C° 0.1 mm 1 mps 751 mmHg 61%
    05:00 +14°C° 0.1 mm 1 mps 751 mmHg 64%
    06:00 +14°C° 0.1 mm 1 mps 751 mmHg 66%
    07:00 +16°C° 0.2 mm 1 mps 751 mmHg 62%
    08:00 +18°C° 0.2 mm 1 mps 751 mmHg 57%
    09:00 +19°C° 0.2 mm 1 mps 752 mmHg 53%
    10:00 +19°C° 0 mm 2 mps 751 mmHg 49%
    11:00 +21°C° 0 mm 2 mps 751 mmHg 45%
    12:00 +23°C° 0 mm 2 mps 751 mmHg 42%
    13:00 +23°C° 0 mm 2 mps 751 mmHg 42%
    14:00 +23°C° 0 mm 2 mps 751 mmHg 43%
    15:00 +23°C° 0 mm 2 mps 750 mmHg 43%
    16:00 +23°C° 0 mm 2 mps 750 mmHg 45%
    17:00 +21°C° 0 mm 2 mps 750 mmHg 47%
    18:00 +21°C° 0 mm 2 mps 750 mmHg 49%
    19:00 +19°C° 0.3 mm 2 mps 750 mmHg 56%
    20:00 +18°C° 0.3 mm 2 mps 750 mmHg 62%
    21:00 +16°C° 0.3 mm 2 mps 750 mmHg 69%
    22:00 +16°C° 1.7 mm 2 mps 750 mmHg 74%
    23:00 +15°C° 1.7 mm 1 mps 750 mmHg 80%

    27 April, Saturday

    Time Temperature Precipitation Wind Pressure Humidity
    00:00 +14°C° 1.7 mm 1 mps 750 mmHg 85%
    01:00 +14°C° 0.3 mm 1 mps 749 mmHg 86%
    02:00 +14°C° 0.3 mm 2 mps 749 mmHg 87%
    03:00 +14°C° 0.3 mm 2 mps 749 mmHg 89%
    04:00 +13°C° 0.2 mm 2 mps 749 mmHg 89%
    05:00 +13°C° 0.2 mm 2 mps 749 mmHg 90%
    06:00 +13°C° 0.2 mm 2 mps 749 mmHg 91%
    07:00 +14°C° 0.1 mm 2 mps 749 mmHg 84%
    08:00 +16°C° 0.1 mm 2 mps 749 mmHg 76%
    09:00 +17°C° 0.1 mm 2 mps 749 mmHg 69%
    10:00 +19°C° 0.1 mm 2 mps 748 mmHg 60%
    11:00 +20°C° 0.1 mm 2 mps 748 mmHg 52%
    12:00 +21°C° 0.1 mm 2 mps 748 mmHg 43%
    13:00 +21°C° 0 mm 2 mps 747 mmHg 44%
    14:00 +21°C° 0 mm 2 mps 747 mmHg 45%
    15:00 +21°C° 0 mm 2 mps 747 mmHg 47%
    16:00 +20°C° 0 mm 2 mps 747 mmHg 50%
    17:00 +21°C° 0 mm 1 mps 747 mmHg 53%
    18:00 +21°C° 0 mm 1 mps 746 mmHg 56%
    19:00 +20°C° 0 mm 1 mps 746 mmHg 57%
    20:00 +19°C° 0 mm 1 mps 746 mmHg 58%
    21:00 +18°C° 0 mm 1 mps 746 mmHg 60%
    22:00 +18°C° 0 mm 1 mps 746 mmHg 62%
    23:00 +16°C° 0 mm 1 mps 746 mmHg 65%

    28 April, Sunday

    Time Temperature Precipitation Wind Pressure Humidity
    00:00 +15°C° 0 mm 2 mps 746 mmHg 68%
    01:00 +15°C° 0.2 mm 2 mps 746 mmHg 72%
    02:00 +14°C° 0.2 mm 2 mps 746 mmHg 75%
    03:00 +14°C° 0.2 mm 2 mps 746 mmHg 79%
    04:00 +14°C° 0 mm 1 mps 746 mmHg 80%
    05:00 +14°C° 0 mm 1 mps 746 mmHg 82%
    06:00 +13°C° 0 mm 0 mps 746 mmHg 83%
    07:00 +14°C° 0.1 mm 1 mps 746 mmHg 81%
    08:00 +15°C° 0.1 mm 1 mps 746 mmHg 79%
    09:00 +16°C° 0.1 mm 1 mps 746 mmHg 77%
    10:00 +16°C° 0.5 mm 1 mps 746 mmHg 75%
    11:00 +17°C° 0.5 mm 2 mps 746 mmHg 73%
    12:00 +17°C° 0.5 mm 3 mps 746 mmHg 71%
    13:00 +18°C° 0.1 mm 3 mps 746 mmHg 67%
    14:00 +19°C° 0.1 mm 3 mps 745 mmHg 62%
    15:00 +20°C° 0.1 mm 3 mps 745 mmHg 57%
    16:00 +19°C° 0.2 mm 3 mps 745 mmHg 62%
    17:00 +18°C° 0.2 mm 3 mps 745 mmHg 66%
    18:00 +18°C° 0.2 mm 2 mps 745 mmHg 70%
    19:00 +17°C° 0.3 mm 2 mps 745 mmHg 74%
    20:00 +16°C° 0.3 mm 2 mps 745 mmHg 78%
    21:00 +15°C° 0.3 mm 1 mps 745 mmHg 83%
    22:00 +15°C° 0.3 mm 1 mps 745 mmHg 84%
    23:00 +14°C° 0.3 mm 2 mps 745 mmHg 86%
    Show more